This is the latest recevied weather packets stored in our database for station/object N4DBJ. If no packets are shown the sender has not sent any weather packets the latest 10 day(s).
| Time | Temp. | Humidity | Pressure | Rain* | Wind** | Luminosity | Snow |
|---|---|---|---|---|---|---|---|
| 1777926692 | 26.67° C | 45% | 1007.4 hPa | 0 mm | - | 541 W/m² | - |
| 1777926392 | 26.67° C | 42% | 1007.5 hPa | 0 mm | - | 535 W/m² | - |
| 1777926089 | 26.67° C | 43% | 1007.7 hPa | 0 mm | - | 546 W/m² | - |
| 1777925785 | 26.67° C | 43% | 1007.8 hPa | 0 mm | - | 639 W/m² | - |
| 1777925484 | 26.67° C | 44% | 1007.8 hPa | 0 mm | - | 652 W/m² | - |
| 1777925180 | 26.67° C | 44% | 1007.8 hPa | 0 mm | - | 645 W/m² | - |
| 1777924876 | 27.22° C | 43% | 1008 hPa | 0 mm | - | 649 W/m² | - |
| 1777924573 | 26.67° C | 44% | 1007.7 hPa | 0 mm | - | 593 W/m² | - |
| 1777924269 | 26.67° C | 45% | 1007.9 hPa | 0 mm | - | 558 W/m² | - |
| 1777923966 | 26.67° C | 45% | 1008.1 hPa | 0 mm | - | 631 W/m² | - |
| 1777923661 | 27.22° C | 46% | 1008.1 hPa | 0 mm | - | 635 W/m² | - |
| 1777923358 | 26.67° C | 47% | 1008.3 hPa | 0 mm | - | 631 W/m² | - |
| 1777923057 | 26.67° C | 46% | 1008.4 hPa | 0 mm | - | 650 W/m² | - |
| 1777922755 | 26.67° C | 46% | 1008.4 hPa | 0 mm | - | 228 W/m² | - |
| 1777922452 | 26.67° C | 50% | 1008.4 hPa | 0 mm | - | 699 W/m² | - |
| 1777922150 | 26.11° C | 49% | 1008.5 hPa | 0 mm | - | 749 W/m² | - |
| 1777921846 | 26.11° C | 47% | 1008.8 hPa | 0 mm | - | 717 W/m² | - |
| 1777921543 | 26.67° C | 46% | 1008.7 hPa | 0 mm | - | 710 W/m² | - |
| 1777921239 | 26.11° C | 48% | 1008.9 hPa | 0 mm | - | 692 W/m² | - |
| 1777920936 | 26.11° C | 47% | 1008.7 hPa | 0 mm | - | 326 W/m² | - |
| 1777920632 | 26.11° C | 52% | 1008.6 hPa | 0 mm | - | 695 W/m² | - |
| 1777920328 | 25° C | 52% | 1009 hPa | 0 mm | - | 712 W/m² | - |
| 1777920023 | 25.56° C | 50% | 1009 hPa | 0 mm | - | 221 W/m² | - |
| 1777919721 | 25.56° C | 49% | 1009.2 hPa | 0 mm | - | 186 W/m² | - |
| 1777919419 | 25.56° C | 47% | 1008.9 hPa | 0 mm | - | 771 W/m² | - |
* Rain latest hour (hover to see other rain measurements)
** Current wind speed in m/s (hover to see current wind gust speed)